Regional Weather Roundup
Issued by NWS

Home | Current Version | Previous Version | Graphics & Text | Print | Product List | Glossary Off
Versions: 1 2 3 4 5 6 7 8 9 10 11 12 13 14 15 16 17 18 19 20 21 22 23 24 25 26 27 28 29 30 31 32 33 34 35 36 37 38 39 40 41 42 43 44 45 46 47 48 49 50

000
ASUS43 KMKX 020121
RWRWI

WISCONSIN REGIONAL WEATHER ROUNDUP
NATIONAL WEATHER SERVICE MILWAUKEE/SULLIVAN WI
800 PM CDT MON SEP 01 2014

NOTE: "FAIR" INDICATES FEW OR NO CLOUDS BELOW 12,000 FEET WITH NO
SIGNIFICANT WEATHER AND/OR OBSTRUCTIONS TO VISIBILITY.

WIZ001-002-006>008-014>016-023>028-020200-
NORTHWEST WISCONSIN

CITY           SKY/WX    TMP DP  RH WIND       PRES   REMARKS
SUPERIOR ARPT  CLEAR     63  55  73 SW3       29.72R
ASHLAND        CLEAR     60  56  86 SW6       29.72R
HAYWARD        CLEAR     63  58  83 SW3       29.75R
SIREN          CLEAR     62  57  83 W3        29.76R
RICE LAKE      CLEAR     62  57  84 S3        29.78R
LADYSMITH      PTCLDY    65  54  68 CALM      29.78R
EAU CLAIRE     PTCLDY    66  58  75 SW5       29.77R
MENOMONIE      PTCLDY    69  56  62 SW3       29.78R
NEW RICHMOND   CLEAR     64  57  79 SW3       29.78R
OSCEOLA        CLEAR     66  58  76 SW3       29.79S
$$

WIZ003>005-009-010-017-018-020200-
NORTH CENTRAL WISCONSIN

CITY           SKY/WX    TMP DP  RH WIND       PRES   REMARKS
WOODRUFF       CLEAR     63  57  79 CALM      29.74R
RHINELANDER    PTCLDY    60  55  83 W5        29.76R
EAGLE RIVER    CLEAR     61  54  77 W3        29.74R
LAND O LAKES   CLEAR     59  56  89 CALM      29.75R
PHILLIPS       CLEAR     63  56  79 SW3       29.76R
TOMAHAWK       CLEAR     62  56  79 CALM      29.77R
MEDFORD        PTCLDY    62  55  78 W3        29.77R
MERRILL        CLEAR     63  57  80 W5        29.76R
$$

WIZ029-030-035-036-043>047-020200-
CENTRAL WISCONSIN

CITY           SKY/WX    TMP DP  RH WIND       PRES   REMARKS
WAUSAU         CLEAR     66  58  75 W6        29.75R
MOSINEE        PTCLDY    63  59  88 W7        29.78R
MARSHFIELD     CLEAR     65  58  78 W7        29.78R
STEVENS POINT  CLEAR     66  56  70 W3        29.78R
WAUPACA        CLEAR     69  62  78 W6        29.76R
WAUTOMA        CLEAR     68  65  90 CALM      29.78R
WISC RAPIDS    CLEAR     67  59  75 W5        29.79R
CAMP DOUGLAS   CLEAR     65  65  99 W3        29.79R
$$

WIZ011>013-019>022-031-037>040-048>050-020200-
NORTHEAST WISCONSIN

CITY           SKY/WX    TMP DP  RH WIND       PRES   REMARKS
ANTIGO         CLEAR     63  55  77 W7        29.76R
STURGEON BAY   CLEAR     66  61  82 CALM      29.73R
GREEN BAY      CLEAR     70  63  78 SW6       29.73R
MANITOWOC      CLEAR     70  65  84 W7        29.75R
APPLETON       PTCLDY    70  64  83 W7        29.75R
CLINTONVILLE   CLEAR     68  59  73 W5        29.74R
OSHKOSH        CLEAR     68  64  87 VRB5      29.76R
$$

WIZ032>034-041-042-053>061-020200-
SOUTHWEST WISCONSIN

CITY           SKY/WX    TMP DP  RH WIND       PRES   REMARKS
LA CROSSE      CLEAR     71  60  68 W5        29.78R
SPARTA         CLEAR     66  61  85 CALM      29.80R
VIROQUA        FAIR      66  60  80 W5        29.81S
BOSCOBEL       CLEAR     70  64  81 CALM      29.80R
PRAIRIE DU CHI CLEAR     70  60  69 CALM      29.80R
PLATTEVILLE    FAIR      69  64  84 CALM      29.83R
$$

WIZ056-057-062-063-064-067-068-020200-
SOUTH CENTRAL WISCONSIN

CITY           SKY/WX    TMP DP  RH WIND       PRES   REMARKS
BARABOO/DELLS  CLEAR     67  61  79 CALM      29.79R
LONE ROCK      CLEAR     71  62  73 CALM      29.79R
WATERTOWN      PTCLDY    68  65  88 W3        29.79R
MADISON        PTCLDY    67  65  93 CALM      29.79R
MIDDLETON      FAIR      67  59  74 W7        29.80R
MONROE         CLEAR     70  64  83 W9        29.80S
JANESVILLE     NOT AVBL
$$

WIZ051-052-058>065-066-070>072-020200-
SOUTHEAST WISCONSIN

CITY           SKY/WX    TMP DP  RH WIND       PRES   REMARKS
MILWAUKEE      MOCLDY    71  64  78 SW8       29.77S
WAUKESHA       CLEAR     68  63  83 W5        29.80R
MILWAUKEE/TIMM PTCLDY    72  63  73 SW5       29.78R
RACINE         LGT RAIN  70  66  87 SW6       29.79R FOG
BURLINGTON     PTCLDY    67  65  94 SW5       29.80R
KENOSHA        PTCLDY    71  66  84 W7        29.80R
FOND DU LAC    CLEAR     66  61  84 SW6       29.77R
SHEBOYGAN      CLEAR     67  61  81 W7        29.76R
WEST BEND      CLEAR     66  61  82 W5        29.78R
JUNEAU         CLEAR     66  63  90 W5        29.79S
$$

LSZ147-162-020200-
LAKE SUPERIOR

STATION/POSITION TIME  TEMP    WIND        PRES    WAVE
                       AIR SEA DIR/SP/G            HT/PER
                 (UTC) (F)     (DEG/KT/KT) (MB)    (FT/S)
W MID LAKE BUOY  0050   61 57  250/ 12/ 14 1004.0R   2/ 5
DEVILS ISLAND    0100   65     260/ 15/ 17 1005.0R
PORT WING        0000   68     260/  9/ 13 1005.8
SAXON HARBOR     0000   67      CALM  /  3 1005.4R
$$

LMZ867-665-643>646-020200-
LAKE MICHIGAN

STATION/POSITION TIME  TEMP    WIND        PRES    WAVE
                       AIR SEA DIR/SP/G            HT/PER
                 (UTC) (F)     (DEG/KT/KT) (MB)    (FT/S)
N MID LAKE BUOY  0050   66 65  230/ 10/ 10 1005.1R   2/ 5
NORTHPORT PIER   0000   70     260/  3/  4 1004.7R
KEWAUNEE LAKESHO 0100   71     230/  4/  5 1006.0R
SHEBOYGAN LAKESH 0100   71 56  260/  9/ 10 1007.8R
ATWATER BUOY     0100   68     250/  6/  8 1009.4R
MILWAUKEE LAKESH 0100   75     250/  8/ 10   N/A
S MID LAKE BUOY  0050   72 70  210/  8/ 10 1007.6R   1/ 4
KENOSHA   LAKESH 0100   73     310/  7/ 17 1008.5R
$$

TC  - TEMPERATURE IN CELSIUS
VSB - VISIBILITY IN STATUTE MILES
WCI - WIND CHILL INDEX
HX  - HEAT INDEX




USA.gov is the U.S. government's official web portal to all federal, state and local government web resources and services.